TANDEM-X

Last updated on Mon Sep 21 2026 00:02:45 GMT+0000 (Coordinated Universal Time)

1 36605U 10030A 26263.37142090 -.00000020 00000+0 22524-5 0 9991 2 36605 97.4471 269.7310 0001913 88.3727 271.7727 15.19151772901092
UTC large
Height (km)
Speed (km/s)
/
Latitude / Longitude
Inclination (degrees)
Orbital Period (minutes)
Azimuth
Elevation
Range (km)
Doppler Factor

Next 0 passes for location: London (51.5072 / 0.1276)

No passes found over London.
TANDEM-X